Algona, IA

9:42 AM CST on February 22, 2018 (GMT -0600)
Algona Municipal

Weather History for KAXA - November, 2012

Change the Weather History Date:

Tuesday, November 13, 2012

  Actual Average Record
Temperature  
Mean Temperature 32 °F -  
Max Temperature 46 °F 44 °F 77 °F (1999)
Min Temperature 17 °F 27 °F 8 °F (1996)
Degree Days  
Heating Degree Days 34    
Moisture  
Dew Point 22 °F    
Average Humidity 65    
Maximum Humidity 86    
Minimum Humidity 37    
Precipitation  
Precipitation 0.00 in - - ()
Sea Level Pressure  
Sea Level Pressure 30.30 in    
Wind  
Wind Speed 10 mph (South)    
Max Wind Speed 17 mph    
Max Gust Speed 20 mph    
Visibility 10 miles    
Events      
Averages and records for this station are not official NWS values.
T = Trace of Precipitation, MM = Missing Value Source: NWS Daily Summary

Daily Weather History Graph

Daily Weather History Graph

Search for Another Location

Airport or City:

Trip Planner

Search our weather history database for the weather conditions in past years. The results will help you decide how hot, cold, wet, or windy it might be!

Date:

Astronomy

Nov. 13, 2012 Rise Set
Actual Time 7:07 AM CST 4:54 PM CST
Civil Twilight 6:37 AM CST 5:25 PM CST
Nautical Twilight 6:02 AM CST 5:59 PM CST
Astronomical Twilight 5:29 AM CST 6:32 PM CST
Moon 6:47 AM CST (11/13) 4:47 PM CST (11/13)
Length of Visible Light 10h 47m
Length of Day
9h 46m
Waning Crescent, 0% of the Moon is Illuminated
Nov 13
Waning Crescent
Nov 13
New
Nov 20
First Quarter
Nov 28
Full
Dec 6
Last Quarter

Hourly Weather History & Observations

Time (CST) Temp. Windchill Dew Point Humidity Pressure Visibility Wind Dir Wind Speed Gust Speed Precip Events Conditions
12:15 AM 21.2 °F 12.6 °F 15.8 °F 80% 30.32 in 10.0 mi WSW 6.9 mph - N/A   Clear
12:35 AM 21.2 °F 12.6 °F 15.8 °F 80% 30.33 in 10.0 mi WSW 6.9 mph - N/A   Clear
12:55 AM 21.2 °F 11.7 °F 14.0 °F 74% 30.32 in 10.0 mi WSW 8.1 mph - N/A   Clear
1:15 AM 19.4 °F 11.5 °F 14.0 °F 80% 30.32 in 10.0 mi SW 5.8 mph - N/A   Clear
1:35 AM 19.4 °F 12.8 °F 14.0 °F 80% 30.31 in 10.0 mi SSW 4.6 mph - N/A   Clear
1:55 AM 19.4 °F 11.5 °F 14.0 °F 80% 30.32 in 10.0 mi SSW 5.8 mph - N/A   Clear
2:15 AM 19.4 °F 9.5 °F 14.0 °F 80% 30.33 in 10.0 mi SSW 8.1 mph - N/A   Clear
2:35 AM 19.4 °F 10.4 °F 14.0 °F 80% 30.33 in 10.0 mi SSW 6.9 mph - N/A   Clear
2:55 AM 19.4 °F 10.4 °F 14.0 °F 80% 30.33 in 10.0 mi SSW 6.9 mph - N/A   Clear
3:35 AM 19.4 °F 11.5 °F 14.0 °F 80% 30.33 in 10.0 mi SW 5.8 mph - N/A   Clear
3:55 AM 17.6 °F 8.2 °F 14.0 °F 86% 30.32 in 10.0 mi SSW 6.9 mph - N/A   Clear
4:15 AM 19.4 °F 9.5 °F 14.0 °F 80% 30.33 in 10.0 mi SSW 8.1 mph - N/A   Clear
4:35 AM 19.4 °F 9.5 °F 14.0 °F 80% 30.33 in 10.0 mi SSW 8.1 mph - N/A   Clear
4:55 AM 19.4 °F 8.6 °F 14.0 °F 80% 30.34 in 10.0 mi SSW 9.2 mph - N/A   Clear
5:15 AM 19.4 °F 9.5 °F 14.0 °F 80% 30.34 in 10.0 mi SSW 8.1 mph - N/A   Clear
5:35 AM 19.4 °F 9.5 °F 14.0 °F 80% 30.34 in 10.0 mi South 8.1 mph - N/A   Clear
5:55 AM 19.4 °F 9.5 °F 14.0 °F 80% 30.34 in 10.0 mi South 8.1 mph - N/A   Clear
6:15 AM 17.6 °F 7.3 °F 14.0 °F 86% 30.34 in 10.0 mi South 8.1 mph - N/A   Clear
6:35 AM 17.6 °F 7.3 °F 14.0 °F 86% 30.34 in 10.0 mi South 8.1 mph - N/A   Clear
6:55 AM 17.6 °F 6.4 °F 14.0 °F 86% 30.35 in 10.0 mi South 9.2 mph - N/A   Clear
7:15 AM 17.6 °F 6.4 °F 14.0 °F 86% 30.35 in 10.0 mi South 9.2 mph - N/A   Clear
7:35 AM 19.4 °F 8.6 °F 15.8 °F 86% 30.34 in 10.0 mi South 9.2 mph - N/A   Clear
7:55 AM 21.2 °F 10.9 °F 15.8 °F 80% 30.35 in 10.0 mi South 9.2 mph - N/A   Clear
8:15 AM 23.0 °F 13.1 °F 17.6 °F 80% 30.34 in 10.0 mi South 9.2 mph - N/A   Clear
8:35 AM 26.6 °F 16.8 °F 19.4 °F 74% 30.34 in 10.0 mi South 10.4 mph - N/A   Clear
8:55 AM 28.4 °F 18.0 °F 21.2 °F 74% 30.34 in 10.0 mi South 12.7 mph - N/A   Clear
9:15 AM 28.4 °F 18.5 °F 21.2 °F 74% 30.34 in 10.0 mi South 11.5 mph - N/A   Clear
9:35 AM 32.0 °F 23.0 °F 23.0 °F 69% 30.34 in 10.0 mi South 11.5 mph - N/A   Clear
9:55 AM 32.0 °F 22.5 °F 23.0 °F 69% 30.35 in 10.0 mi South 12.7 mph - N/A   Clear
10:15 AM 35.6 °F 26.6 °F 23.0 °F 60% 30.35 in 10.0 mi South 13.8 mph - N/A   Clear
10:35 AM 35.6 °F 26.6 °F 23.0 °F 60% 30.35 in 10.0 mi South 13.8 mph - N/A   Clear
10:55 AM 37.4 °F 28.5 °F 23.0 °F 56% 30.34 in 10.0 mi South 15.0 mph - N/A   Clear
11:15 AM 39.2 °F 30.8 °F 23.0 °F 52% 30.33 in 10.0 mi South 15.0 mph - N/A   Clear
11:35 AM 41.0 °F 33.1 °F 23.0 °F 49% 30.33 in 10.0 mi South 15.0 mph - N/A   Clear
11:55 AM 41.0 °F 33.5 °F 23.0 °F 49% 30.32 in 10.0 mi South 13.8 mph - N/A   Clear
12:15 PM 42.8 °F 35.1 °F 24.8 °F 49% 30.31 in 10.0 mi South 16.1 mph - N/A   Clear
12:55 PM 44.6 °F 38.4 °F 23.0 °F 43% 30.29 in 10.0 mi South 12.7 mph - N/A   Clear
1:15 PM 44.6 °F 38.4 °F 23.0 °F 43% 30.28 in 10.0 mi South 12.7 mph - N/A   Clear
1:35 PM 46.4 °F 39.8 °F 21.2 °F 37% 30.28 in 10.0 mi South 16.1 mph - N/A   Clear
1:55 PM 44.6 °F 38.1 °F 23.0 °F 43% 30.28 in 10.0 mi South 13.8 mph 19.6 mph N/A   Clear
2:15 PM 46.4 °F 40.1 °F 23.0 °F 40% 30.28 in 10.0 mi South 15.0 mph - N/A   Clear
2:35 PM 46.4 °F 39.5 °F 24.8 °F 43% 30.27 in 10.0 mi South 17.3 mph - N/A   Clear
2:55 PM 44.6 °F 38.1 °F 24.8 °F 46% 30.27 in 10.0 mi South 13.8 mph - N/A   Clear
3:15 PM 46.4 °F 40.4 °F 26.6 °F 46% 30.27 in 10.0 mi South 13.8 mph - N/A   Clear
3:35 PM 44.6 °F 38.1 °F 26.6 °F 49% 30.27 in 10.0 mi South 13.8 mph - N/A   Clear
3:55 PM 44.6 °F 38.4 °F 26.6 °F 49% 30.27 in 10.0 mi SSE 12.7 mph - N/A   Scattered Clouds
4:15 PM 44.6 °F 38.4 °F 26.6 °F 49% 30.26 in 10.0 mi SSE 12.7 mph - N/A   Mostly Cloudy
4:35 PM 42.8 °F 35.4 °F 26.6 °F 53% 30.26 in 10.0 mi SSE 15.0 mph - N/A   Mostly Cloudy
4:55 PM 42.8 °F 35.4 °F 26.6 °F 53% 30.25 in 10.0 mi SSE 15.0 mph - N/A   Overcast
5:15 PM 42.8 °F 35.8 °F 26.6 °F 53% 30.25 in 10.0 mi SSE 13.8 mph - N/A   Overcast
5:35 PM 41.0 °F 33.5 °F 26.6 °F 57% 30.25 in 10.0 mi SSE 13.8 mph - N/A   Overcast
5:55 PM 41.0 °F 33.1 °F 26.6 °F 57% 30.25 in 10.0 mi SSE 15.0 mph - N/A   Overcast
6:15 PM 41.0 °F 32.8 °F 26.6 °F 57% 30.25 in 10.0 mi SSE 16.1 mph - N/A   Overcast
6:35 PM 41.0 °F 33.1 °F 26.6 °F 57% 30.24 in 10.0 mi SE 15.0 mph - N/A   Overcast
6:55 PM 41.0 °F 32.5 °F 26.6 °F 57% 30.24 in 10.0 mi SSE 17.3 mph - N/A   Overcast
7:15 PM 41.0 °F 33.5 °F 26.6 °F 57% 30.25 in 10.0 mi South 13.8 mph - N/A   Overcast
7:35 PM 41.0 °F 34.3 °F 26.6 °F 57% 30.26 in 10.0 mi South 11.5 mph - N/A   Scattered Clouds
7:55 PM 41.0 °F 34.3 °F 26.6 °F 57% 30.26 in 10.0 mi South 11.5 mph - N/A   Clear
8:15 PM 41.0 °F 32.8 °F 26.6 °F 57% 30.26 in 10.0 mi South 16.1 mph - N/A   Clear
8:35 PM 41.0 °F 33.1 °F 26.6 °F 57% 30.26 in 10.0 mi SSE 15.0 mph - N/A   Mostly Cloudy
8:55 PM 41.0 °F 33.5 °F 28.4 °F 61% 30.26 in 10.0 mi SSE 13.8 mph 19.6 mph N/A   Mostly Cloudy
9:15 PM 39.2 °F 31.2 °F 28.4 °F 65% 30.27 in 10.0 mi SSE 13.8 mph - N/A   Mostly Cloudy
9:35 PM 39.2 °F 31.6 °F 28.4 °F 65% 30.27 in 10.0 mi SSE 12.7 mph - N/A   Mostly Cloudy
9:55 PM 39.2 °F 32.0 °F 28.4 °F 65% 30.26 in 10.0 mi SSE 11.5 mph - N/A   Mostly Cloudy
10:15 PM 39.2 °F 32.0 °F 28.4 °F 65% 30.26 in 10.0 mi SSE 11.5 mph - N/A   Mostly Cloudy
10:35 PM 39.2 °F 32.0 °F 28.4 °F 65% 30.26 in 10.0 mi SSE 11.5 mph - N/A   Mostly Cloudy
10:55 PM 39.2 °F - 30.2 °F 70% 30.26 in 10.0 mi North - - N/A   Scattered Clouds
11:15 PM 39.2 °F 31.6 °F 30.2 °F 70% 30.26 in 10.0 mi South 12.7 mph - N/A   Partly Cloudy
11:35 PM 37.4 °F 28.9 °F 30.2 °F 75% 30.26 in 10.0 mi South 13.8 mph - N/A   Mostly Cloudy
11:55 PM 37.4 °F 28.5 °F 30.2 °F 75% 30.25 in 10.0 mi South 15.0 mph - N/A   Mostly Cloudy